[[{"header":{"parameterUnit":"m.s-1","parameterCategory":2,"la1":30.2992,"la2":30.254,"lo1":-89.0895,"lo2":-89.0443,"dy":0.0025,"dx":0.0025,"nx":19,"ny":19,"refTime":"2026-04-30T21:00:00:Z","depth":"0","parameterNumber":2,"parameterNumberName":"U-component_of_CURRENTS"},"data":[0,0,0,0.0868,0.0869,0.0911,0.0912,0.0936,0.0936,0,0,0,0,0,0,0,0,0,0,0,0.0867,0.0868,0.0868,0.0869,0.0911,0.0912,0.0936,0.0936,0,0,0,0,0,0,0,0,0,0,0,0.0867,0.0867,0.0868,0.0869,0.0911,0.0912,0.0936,0.0911,0,0,0,0,0,0,0,0,0,0,0.0874,0.0866,0.0867,0.0868,0.087,0.0911,0.0912,0.091,0.0913,0.0909,0,0.093,0,0.0928,0.0937,0.0937,0,0,0,0.0868,0.0864,0.0885,0.0868,0.087,0.0911,0.0892,0.0912,0.0914,0.0912,0.093,0.0931,0.0929,0.0937,0.0937,0.0929,0.0928,0,0,0.0865,0.086,0.0884,0.0887,0.0899,0.0891,0.0893,0.0914,0.0917,0.093,0.0931,0.0929,0.0937,0.0938,0.0929,0.0928,0,0,0,0.086,0.0859,0.088,0.0887,0.0894,0.0892,0.0895,0.0917,0.0928,0.0932,0.0929,0.0938,0.0938,0.0929,0.0929,0.0973,0,0,0,0.0858,0.0856,0.088,0.0875,0.0894,0.0906,0.0897,0.0927,0.0928,0.0929,0.0938,0.0938,0.0929,0.0929,0.0973,0.0994,0,0,0,0.0862,0.0855,0.0868,0.0875,0.0893,0.0906,0.0917,0.0927,0.0927,0.0937,0.0938,0.0929,0.0929,0.0972,0.0992,0.1083,0,0,0,0.0842,0.0858,0.0869,0.0874,0.0893,0.092,0.0917,0.0937,0.0949,0.0938,0.0929,0.0929,0.0972,0.0991,0.1081,0.1363,0.1396,0,0,0.0847,0.0858,0.0857,0.0867,0.0888,0.0913,0.0928,0.0946,0.0934,0.0921,0.0921,0.0973,0.0992,0.1083,0.1332,0.1367,0,0,0,0.0846,0.0861,0.0866,0.0878,0.0897,0.0929,0.0946,0.0954,0.0957,0.0939,0.0949,0.0959,0.1017,0.118,0.1207,0.1286,0.0926,0.0926,0.0926,0.0875,0.0868,0.0878,0.0889,0.0906,0.094,0.0966,0.0975,0.0967,0.097,0.0979,0.1052,0.1224,0.1248,0.1323,0.0958,0.0958,0.0958,0.0958,0.0907,0.0912,0.0901,0.0911,0.0928,0.0946,0.0982,0.0995,0.1045,0.0997,0.1052,0.1196,0.1281,0.135,0.0961,0.096,0.096,0.096,0.0959,0.0949,0.0945,0.0942,0.0948,0.0954,0.0967,0.1067,0.1069,0.1081,0.1124,0.135,0.1352,0.1435,0.1174,0.1175,0.1175,0.1176,0.1176,0.1176,0.0992,0.0983,0.1005,0.0993,0.0999,0.1054,0.1134,0.1232,0.1387,0.1425,0.1428,0.1486,0.1118,0.1134,0.1184,0.1182,0.1181,0.1181,0.118,0.1053,0.1045,0.1089,0.1104,0.1142,0.1241,0.1323,0.1616,0.1712,0.1838,0.1907,0.161,0.1638,0.1618,0.1646,0.1825,0.1825,0.1825,0.1825,0.1103,0.1095,0.1181,0.1235,0.1307,0.1352,0.1648,0.1897,0.2148,0.2289,0.2208,0.2219,0.2189,0.2244,0.221,0.2247,0.2574,0.2574,0.2575,0.1161,0.1182,0.127,0.1312,0.1376,0.1509,0.1746,0.205,0.2487,0.2597,0.2258,0.2227,0.2219,0.2167,0.2227,0.2174,0.2223,0,0]},{"header":{"parameterUnit":"m.s-1","parameterCategory":2,"la1":30.2992,"la2":30.254,"lo1":-89.0895,"lo2":-89.0443,"dy":0.0025,"dx":0.0025,"nx":19,"ny":19,"refTime":"2026-04-30T21:00:00:Z","depth":"0","parameterNumber":3,"parameterNumberName":"V-component_of_CURRENTS"},"data":[0,0,0,-0.0062,-0.0062,-0.0056,-0.0056,-0.0099,-0.0099,0,0,0,0,0,0,0,0,0,0,0,-0.0073,-0.0073,-0.0062,-0.0062,-0.0056,-0.0056,-0.0099,-0.0099,0,0,0,0,0,0,0,0,0,0,0,-0.0073,-0.0073,-0.0073,-0.0062,-0.0056,-0.0056,-0.0099,-0.0093,0,0,0,0,0,0,0,0,0,0,-0.0093,-0.0091,-0.0073,-0.0073,-0.0062,-0.0056,-0.0056,-0.0092,-0.0093,-0.0113,0,-0.0111,0,-0.0099,-0.0102,-0.0103,0,0,0,-0.0071,-0.009,-0.0087,-0.0073,-0.0061,-0.0056,-0.0061,-0.0092,-0.0094,-0.0115,-0.0111,-0.0112,-0.01,-0.0103,-0.0103,-0.014,-0.014,0,0,-0.0071,-0.0075,-0.0086,-0.0087,-0.0059,-0.0061,-0.0061,-0.0093,-0.0096,-0.0111,-0.0113,-0.0101,-0.0103,-0.0103,-0.014,-0.014,0,0,0,-0.0066,-0.0075,-0.0071,-0.0086,-0.0077,-0.0061,-0.0061,-0.0095,-0.0093,-0.0113,-0.0101,-0.0103,-0.0104,-0.014,-0.014,-0.0117,0,0,0,-0.0067,-0.0071,-0.0071,-0.0073,-0.0076,-0.0078,-0.0062,-0.0091,-0.0093,-0.0101,-0.0103,-0.0104,-0.014,-0.014,-0.0118,-0.0061,0,0,0,-0.0073,-0.0072,-0.007,-0.0074,-0.0065,-0.0077,-0.0077,-0.0091,-0.0086,-0.0103,-0.0105,-0.014,-0.014,-0.0118,-0.0063,-0.0003,0,0,0,-0.0078,-0.0068,-0.0071,-0.0058,-0.0065,-0.0059,-0.0076,-0.0083,-0.0096,-0.0104,-0.014,-0.014,-0.0118,-0.0065,-0.0005,0.0227,0.0256,0,0,-0.0066,-0.0067,-0.0059,-0.006,-0.0044,-0.0061,-0.0058,-0.0084,-0.0105,-0.0134,-0.0135,-0.0117,-0.0063,-0.0003,0.022,0.025,0,0,0,-0.0054,-0.0044,-0.0043,-0.0032,-0.0036,-0.0032,-0.0063,-0.0082,-0.011,-0.0111,-0.0126,-0.0092,-0.0055,0.008,0.0102,0.0017,-0.014,-0.014,-0.014,-0.0011,-0.0016,0.0005,-0.0001,-0.0004,-0.0021,-0.0026,-0.0057,-0.0101,-0.0115,-0.0083,-0.0027,0.0114,0.0134,0.004,-0.0118,-0.0117,-0.0117,-0.0117,0.0039,0.0063,0.0049,0.0065,0.0055,0.005,0.0014,-0.0016,-0.0019,-0.0074,-0.004,0.0086,0.0162,0.0052,-0.0116,-0.0116,-0.0116,-0.0117,-0.0117,0.0088,0.0098,0.0098,0.0121,0.0139,0.0116,0.0205,0.0126,0.0045,0.0063,0.0231,0.0234,0.0151,0.0079,0.0079,0.008,0.008,0.008,0.0081,0.0143,0.0141,0.0186,0.0189,0.0229,0.0296,0.032,0.0359,0.0364,0.0319,0.032,0.0179,0.0034,0.0042,0.0088,0.0087,0.0086,0.0085,0.0085,0.0232,0.0214,0.0297,0.0342,0.0461,0.0662,0.0651,0.0807,0.0767,0.0804,0.0523,0.0457,0.0491,0.0474,0.0493,0.0654,0.0654,0.0654,0.0654,0.0304,0.0293,0.0451,0.0574,0.0736,0.086,0.1232,0.131,0.1071,0.0939,0.0699,0.0665,0.0646,0.0682,0.066,0.0679,0.0883,0.0882,0.0882,0.0396,0.0431,0.059,0.0696,0.0883,0.1162,0.1562,0.1744,0.1319,0.0867,0.0526,0.0516,0.043,0.0407,0.043,0.0407,0.0425,0,0]}],[{"header":{"parameterUnit":"m.s-1","parameterCategory":2,"la1":30.2992,"la2":30.254,"lo1":-89.0895,"lo2":-89.0443,"dy":0.0025,"dx":0.0025,"nx":19,"ny":19,"refTime":"2026-04-30T21:00:00:Z","depth":"2","parameterNumber":2,"parameterNumberName":"U-component_of_CURRENTS"},"data":[0,0,0,0.1492,0.1489,0.1399,0.1399,0.1431,0.1432,0,0,0,0,0,0,0,0,0,0,0,0.1545,0.1545,0.1492,0.1489,0.1399,0.1399,0.1431,0.1432,0,0,0,0,0,0,0,0,0,0,0,0.1546,0.1545,0.1544,0.1488,0.1399,0.1399,0.1431,0.1468,0,0,0,0,0,0,0,0,0,0,0.1539,0.1527,0.1545,0.1544,0.1488,0.1399,0.1399,0.1469,0.1466,0.1506,0,0.1486,0,0.1442,0.1435,0.1435,0,0,0,0.1513,0.1528,0.1528,0.1544,0.1486,0.1399,0.1447,0.1466,0.1463,0.1503,0.1486,0.1485,0.1442,0.1435,0.1436,0.1532,0.1533,0,0,0.1518,0.1511,0.153,0.1526,0.1458,0.1449,0.1443,0.1463,0.1447,0.1486,0.1485,0.1443,0.1436,0.1436,0.1532,0.1533,0,0,0,0.1516,0.1514,0.151,0.1527,0.1488,0.1446,0.144,0.1447,0.1451,0.1484,0.1443,0.1436,0.1437,0.1531,0.1532,0.1565,0,0,0,0.152,0.1511,0.1512,0.1504,0.1487,0.1435,0.1422,0.1451,0.145,0.1443,0.1436,0.1437,0.153,0.1532,0.1563,0.1511,0,0,0,0.155,0.1512,0.1506,0.1505,0.1454,0.1434,0.1439,0.1449,0.1425,0.1435,0.1437,0.153,0.1531,0.156,0.151,0.1587,0,0,0,0.1543,0.1505,0.1506,0.148,0.1455,0.1449,0.1438,0.1419,0.1426,0.1436,0.153,0.1532,0.156,0.1509,0.1585,0.1767,0.1791,0,0,0.1494,0.1498,0.1497,0.1496,0.1473,0.1463,0.1482,0.1475,0.1474,0.1537,0.1538,0.1563,0.151,0.1586,0.1862,0.1884,0,0,0,0.1485,0.1467,0.147,0.1456,0.1469,0.1482,0.1479,0.1507,0.1548,0.1478,0.1588,0.1552,0.16,0.1707,0.1724,0.154,0.154,0.154,0.1539,0.1364,0.1414,0.1405,0.1456,0.1468,0.1499,0.1539,0.1581,0.159,0.1623,0.1601,0.1698,0.1815,0.1829,0.166,0.166,0.166,0.166,0.166,0.131,0.1332,0.138,0.1392,0.1452,0.148,0.1581,0.1608,0.1697,0.1668,0.1717,0.1761,0.185,0.1663,0.1663,0.1662,0.1662,0.1662,0.1662,0.1271,0.129,0.1306,0.1347,0.1379,0.1452,0.1542,0.1591,0.1676,0.1717,0.1871,0.1873,0.1697,0.1765,0.1765,0.1765,0.1765,0.1765,0.1765,0.124,0.1256,0.1273,0.1301,0.133,0.1385,0.1502,0.1615,0.1797,0.1883,0.1887,0.1733,0.1729,0.1704,0.1768,0.1767,0.1767,0.1767,0.1767,0.1249,0.1239,0.1274,0.1297,0.1363,0.1458,0.1558,0.1867,0.1986,0.2129,0.2029,0.2022,0.2025,0.2014,0.1996,0.2131,0.2131,0.2131,0.2131,0.126,0.1252,0.1326,0.1372,0.1436,0.1512,0.1747,0.1853,0.2038,0.2029,0.2031,0.2031,0.2024,0.2022,0.201,0.199,0.2123,0.2122,0.2121,0.1301,0.1317,0.1395,0.1423,0.1486,0.1623,0.1762,0.1725,0.1865,0.2097,0.1786,0.2178,0.2191,0.2173,0.2178,0.2156,0.2127,0,0]},{"header":{"parameterUnit":"m.s-1","parameterCategory":2,"la1":30.2992,"la2":30.254,"lo1":-89.0895,"lo2":-89.0443,"dy":0.0025,"dx":0.0025,"nx":19,"ny":19,"refTime":"2026-04-30T21:00:00:Z","depth":"2","parameterNumber":3,"parameterNumberName":"V-component_of_CURRENTS"},"data":[0,0,0,-0.028,-0.028,-0.0303,-0.0303,-0.0334,-0.0335,0,0,0,0,0,0,0,0,0,0,0,-0.0264,-0.0264,-0.028,-0.028,-0.0303,-0.0303,-0.0334,-0.0335,0,0,0,0,0,0,0,0,0,0,0,-0.0264,-0.0264,-0.0264,-0.028,-0.0303,-0.0303,-0.0334,-0.0318,0,0,0,0,0,0,0,0,0,0,-0.0296,-0.0282,-0.0264,-0.0264,-0.028,-0.0303,-0.0303,-0.0317,-0.0319,-0.0324,0,-0.0318,0,-0.0329,-0.0336,-0.0337,0,0,0,-0.0284,-0.0281,-0.0284,-0.0264,-0.028,-0.0302,-0.0294,-0.0318,-0.032,-0.0326,-0.0319,-0.032,-0.0329,-0.0337,-0.0337,-0.038,-0.038,0,0,-0.0283,-0.0274,-0.0283,-0.0285,-0.0275,-0.0293,-0.0294,-0.0319,-0.0318,-0.0319,-0.0321,-0.033,-0.0337,-0.0337,-0.038,-0.038,0,0,0,-0.0277,-0.0273,-0.0276,-0.0284,-0.0289,-0.0293,-0.0295,-0.0317,-0.0317,-0.0322,-0.033,-0.0337,-0.0337,-0.038,-0.038,-0.0317,0,0,0,-0.0276,-0.0269,-0.0275,-0.0271,-0.0288,-0.0303,-0.0292,-0.0315,-0.0318,-0.033,-0.0337,-0.0338,-0.0379,-0.038,-0.0318,-0.0259,0,0,0,-0.0265,-0.0268,-0.0266,-0.027,-0.0279,-0.0303,-0.0305,-0.0316,-0.0323,-0.0337,-0.0338,-0.0379,-0.038,-0.0319,-0.0262,-0.0202,0,0,0,-0.0262,-0.0238,-0.0266,-0.0253,-0.0278,-0.0283,-0.0305,-0.0314,-0.0322,-0.0337,-0.0379,-0.038,-0.0319,-0.0264,-0.0204,-0.0108,-0.0088,0,0,-0.0226,-0.0233,-0.0229,-0.0255,-0.0239,-0.0281,-0.0274,-0.0295,-0.0338,-0.0371,-0.0372,-0.0318,-0.0262,-0.0202,-0.0146,-0.0124,0,0,0,-0.0215,-0.0202,-0.0207,-0.0209,-0.023,-0.0232,-0.0267,-0.029,-0.0327,-0.0346,-0.0349,-0.0316,-0.0279,-0.0229,-0.0213,-0.0383,-0.0383,-0.0383,-0.0383,-0.0139,-0.0161,-0.0143,-0.0162,-0.0168,-0.0201,-0.0205,-0.0248,-0.0301,-0.032,-0.0289,-0.023,-0.0179,-0.0165,-0.0335,-0.0334,-0.0334,-0.0334,-0.0334,-0.0078,-0.0069,-0.009,-0.0077,-0.0096,-0.0098,-0.0142,-0.0176,-0.0189,-0.0263,-0.0231,-0.0195,-0.0142,-0.0329,-0.033,-0.0331,-0.0331,-0.0332,-0.0332,-0.0035,-0.0028,-0.003,-0.0012,0.0004,-0.0027,0.0028,-0.0039,-0.011,-0.009,-0.0041,-0.0041,-0.0147,-0.0084,-0.0084,-0.0083,-0.0083,-0.0083,-0.0082,0.0013,0.0013,0.0054,0.0062,0.0087,0.0131,0.0121,0.014,0.0114,0.0057,0.0057,-0.0145,-0.0153,-0.0133,-0.0074,-0.0076,-0.0077,-0.0077,-0.0078,0.0074,0.007,0.0132,0.0166,0.0239,0.0309,0.032,0.0371,0.0362,0.0372,0.0143,0.0135,0.0137,0.0123,0.0148,0.0277,0.0277,0.0277,0.0277,0.0119,0.012,0.0213,0.0281,0.0368,0.0397,0.0543,0.0562,0.0464,0.0373,0.0368,0.0313,0.0298,0.0303,0.0285,0.0311,0.0482,0.0482,0.0482,0.017,0.0185,0.0263,0.0315,0.0406,0.0496,0.0618,0.0693,0.0566,0.0484,0.0338,0.0304,0.0207,0.0189,0.0179,0.0157,0.0191,0,0]}],[{"header":{"parameterUnit":"m.s-1","parameterCategory":2,"la1":30.2992,"la2":30.254,"lo1":-89.0895,"lo2":-89.0443,"dy":0.0025,"dx":0.0025,"nx":19,"ny":19,"refTime":"2026-04-30T21:00:00:Z","depth":"4","parameterNumber":2,"parameterNumberName":"U-component_of_CURRENTS"},"data":[0,0,0,0.105,0.1052,0.1174,0.1174,0.1226,0.1226,0,0,0,0,0,0,0,0,0,0,0,0.103,0.1031,0.1049,0.1052,0.1174,0.1174,0.1226,0.1226,0,0,0,0,0,0,0,0,0,0,0,0.1029,0.1031,0.1033,0.1053,0.1173,0.1174,0.1226,0.1161,0,0,0,0,0,0,0,0,0,0,0.1056,0.1031,0.1031,0.1033,0.1053,0.1173,0.1174,0.1159,0.1165,0.1139,0,0.118,0,0.119,0.1226,0.1226,0,0,0,0.1057,0.1026,0.1075,0.1033,0.1054,0.1173,0.112,0.1163,0.117,0.1147,0.1181,0.1183,0.1191,0.1226,0.1226,0.1353,0.1354,0,0,0.105,0.1029,0.1071,0.108,0.1112,0.1116,0.1124,0.1168,0.1173,0.1181,0.1184,0.1192,0.1226,0.1227,0.1352,0.1353,0,0,0,0.1028,0.1024,0.1074,0.1078,0.1101,0.112,0.1128,0.1172,0.1195,0.1185,0.1192,0.1227,0.1227,0.135,0.1352,0.1343,0,0,0,0.1024,0.1011,0.1072,0.1056,0.1101,0.1145,0.113,0.1193,0.1197,0.1192,0.1227,0.1227,0.1349,0.1351,0.134,0.1361,0,0,0,0.102,0.1009,0.1036,0.1056,0.1106,0.1146,0.1171,0.1195,0.12,0.1226,0.1227,0.1348,0.1351,0.1337,0.1357,0.1377,0,0,0,0.0975,0.1008,0.1036,0.1074,0.1105,0.1155,0.1171,0.1191,0.1211,0.1227,0.1349,0.1352,0.1336,0.1354,0.1375,0.1156,0,0,0,0.0985,0.1009,0.1031,0.1059,0.1077,0.1137,0.1193,0.122,0.126,0.1323,0.1328,0.1341,0.1357,0.1377,0.1345,0,0,0,0,0.1012,0.1023,0.1028,0.1063,0.1108,0.1139,0.1211,0.1241,0.1331,0.1289,0.1408,0.1421,0.1431,0.1301,0.1368,0.1367,0.1367,0.1366,0.1366,0.098,0.1016,0.103,0.1075,0.1113,0.1165,0.1221,0.1304,0.1343,0.1401,0.146,0.1541,0.1408,0.1503,0.1503,0.1503,0.1503,0.1503,0.1503,0.0951,0.0964,0.1024,0.1056,0.1116,0.1192,0.1303,0.1349,0.1494,0.1501,0.1511,0.1361,0.1504,0.1504,0.1504,0.1504,0.1504,0.1504,0.1504,0.0896,0.0912,0.0967,0.1034,0.1109,0.1227,0.1315,0.1433,0.1532,0.1563,0.1453,0.156,0.1504,0.1584,0.1585,0.1585,0.1585,0.1585,0.1585,0.0828,0.0876,0.0915,0.0994,0.1046,0.1183,0.133,0.1406,0.1518,0.1464,0.1598,0.1569,0.1566,0.1512,0.1589,0.1588,0.1588,0.1587,0.1587,0.0756,0.0814,0.0817,0.0861,0.0958,0.1017,0.1201,0.1301,0.132,0.1327,0.139,0.1399,0.1386,0.1388,0.1326,0.135,0.1347,0.1345,0,0.0724,0.0745,0.0762,0.0773,0.0801,0.0922,0.0927,0.1037,0.1172,0.1149,0.132,0.1388,0.1394,0.1375,0.1374,0.1298,0,0,0,0.0693,0.069,0.0685,0.0719,0.0724,0.0817,0.0941,0.0946,0.1161,0.1134,0.1281,0.1298,0.1401,0.1598,0.1601,0.1597,0.1511,0,0]},{"header":{"parameterUnit":"m.s-1","parameterCategory":2,"la1":30.2992,"la2":30.254,"lo1":-89.0895,"lo2":-89.0443,"dy":0.0025,"dx":0.0025,"nx":19,"ny":19,"refTime":"2026-04-30T21:00:00:Z","depth":"4","parameterNumber":3,"parameterNumberName":"V-component_of_CURRENTS"},"data":[0,0,0,0.0129,0.0129,0.0114,0.0114,0.0165,0.0166,0,0,0,0,0,0,0,0,0,0,0,0.0134,0.0134,0.0129,0.0129,0.0114,0.0114,0.0165,0.0166,0,0,0,0,0,0,0,0,0,0,0,0.0134,0.0134,0.0134,0.0129,0.0114,0.0114,0.0165,0.0158,0,0,0,0,0,0,0,0,0,0,0.0163,0.0166,0.0134,0.0134,0.0129,0.0114,0.0114,0.0157,0.0158,0.0194,0,0.0193,0,0.0185,0.0171,0.0172,0,0,0,0.0125,0.0165,0.0155,0.0134,0.0129,0.0114,0.0119,0.0157,0.0159,0.0196,0.0193,0.0194,0.0186,0.0172,0.0172,0.0284,0.0285,0,0,0.0126,0.0139,0.0154,0.0156,0.0129,0.012,0.0119,0.0157,0.0167,0.0193,0.0195,0.0186,0.0172,0.0173,0.0283,0.0284,0,0,0,0.0131,0.014,0.0127,0.0155,0.0149,0.012,0.0118,0.0164,0.0159,0.0196,0.0187,0.0173,0.0174,0.0283,0.0284,0.0327,0,0,0,0.0131,0.0143,0.0128,0.0137,0.0148,0.0149,0.0125,0.0156,0.016,0.0187,0.0173,0.0175,0.0282,0.0283,0.0325,0.0329,0,0,0,0.0135,0.0143,0.0141,0.0137,0.0131,0.0147,0.0143,0.0156,0.0155,0.0172,0.0175,0.0282,0.0283,0.0322,0.0326,0.0332,0,0,0,0.0149,0.0156,0.0141,0.0154,0.0132,0.0162,0.0143,0.0174,0.0193,0.0173,0.0282,0.0284,0.0321,0.0324,0.033,0.0261,0,0,0,0.0164,0.0158,0.0166,0.0152,0.019,0.0163,0.0218,0.0232,0.0227,0.0272,0.0274,0.0325,0.0325,0.0331,0.0348,0,0,0,0,0.0175,0.018,0.0192,0.0207,0.0224,0.0253,0.0262,0.0273,0.0307,0.0244,0.0343,0.0341,0.0344,0.03,0.0291,0.0291,0.029,0.029,0.029,0.019,0.0202,0.0236,0.0261,0.0289,0.0326,0.0347,0.0366,0.0363,0.0389,0.0391,0.0442,0.0401,0.0414,0.0414,0.0414,0.0414,0.0414,0.0414,0.0207,0.0218,0.0264,0.0301,0.0347,0.0392,0.044,0.0443,0.0469,0.0455,0.0455,0.0367,0.0419,0.0418,0.0418,0.0417,0.0417,0.0416,0.0416,0.0196,0.0209,0.0241,0.0303,0.0375,0.0429,0.048,0.0508,0.0503,0.0509,0.0444,0.0464,0.0443,0.0507,0.0507,0.0507,0.0507,0.0507,0.0507,0.0161,0.02,0.0232,0.0308,0.0358,0.0436,0.0505,0.0511,0.0516,0.0479,0.0514,0.0473,0.047,0.0448,0.0509,0.0508,0.0508,0.0508,0.0508,0.0124,0.0144,0.0189,0.0238,0.0364,0.0431,0.0505,0.0495,0.0489,0.0448,0.0458,0.046,0.0429,0.0426,0.0402,0.045,0.045,0.0449,0,0.0087,0.0104,0.0157,0.0231,0.0332,0.0432,0.0441,0.0453,0.0432,0.0428,0.0476,0.049,0.049,0.0456,0.0453,0.0425,0,0,0,0.0057,0.0082,0.011,0.02,0.0323,0.0398,0.0452,0.0428,0.0451,0.0397,0.0432,0.0436,0.0465,0.0512,0.0469,0.0465,0.0427,0,0]}]]